Regional Weather Roundup
Issued by NWS

Home | Current Version | Previous Version | Graphics & Text | Print | Product List | Glossary Off
Versions: 1 2 3 4 5 6 7 8 9 10 11 12 13 14 15 16 17 18 19 20 21 22 23 24 25 26 27 28 29 30 31 32 33 34 35 36 37 38 39 40 41 42 43 44 45 46 47 48 49 50

000
ASUS43 KDTX 251301
RWRMI
MICHIGAN HOURLY REGIONAL WEATHER ROUNDUP
NATIONAL WEATHER SERVICE DETROIT/PONTIAC MI
900 AM EDT MON SEP 25 2017

NOTE: "FAIR" INDICATES FEW OR NO CLOUDS BELOW 12,000 FEET WITH NO
SIGNIFICANT WEATHER AND/OR OBSTRUCTION TO VISIBILITY.

MIZ047>049-052>055-059>063-066>070-074>076-081>083-251400-
SOUTHEAST LOWER MICHIGAN

CITY           SKY/WX    TMP DP  RH WIND       PRES   REMARKS
ADRIAN         MOSUNNY   68  65  90 CALM      30.08S FOG
ALMA           SUNNY     64  61  90 N3        30.08R
ANN ARBOR      MOSUNNY   68  68 100 CALM      30.07S
BAD AXE        SUNNY     66  64  94 CALM      30.10S FOG
CARO           MOSUNNY   67  64  90 CALM      30.08S
DETROIT CITY   MOSUNNY   73  69  87 E5        30.07S FOG
DETROIT        PTSUNNY   75  68  78 CALM      30.08R HAZE
FLINT          MOSUNNY   70  66  87 CALM      30.08R
GROSSE ILE     MOSUNNY   72  69  89 CALM      30.06S FOG
HILLSDALE      CLOUDY    68  66  94 CALM      30.08S FOG
HOWELL         SUNNY     67  65  91 CALM      30.08S FOG

CITY           SKY/WX    TMP DP  RH WIND       PRES   REMARKS
JACKSON        MOSUNNY   68  64  87 CALM      30.08R FOG
LAMBERTVILLE   MOSUNNY   71  69  93 CALM      30.07R FOG
LANSING        SUNNY     71  65  81 CALM      30.08R
LAPEER         FAIR      67  65  92 CALM      30.08S
MASON          SUNNY     69  67  94 CALM      30.08S FOG
MONROE         MOSUNNY   70  67  93 CALM      30.06S FOG
MT. CLEMENS    PTSUNNY   70  70 100 CALM      30.06S
PONTIAC        PTSUNNY   71  67  87 CALM      30.08R
PORT HOPE        N/A     67  64  90 CALM      30.07S
PORT HURON     SUNNY     64  64 100 CALM      30.09S FOG
TRI CITIES     MOSUNNY   70  66  87 CALM      30.08R
MIDLAND        FAIR      65  64  94 CALM      30.07S
TROY           SUNNY     72  66  81 CALM      30.10R
SAGINAW HB     MOSUNNY   66  63  88 CALM      30.06F
$$
MIZ043>046-050>051-056>058-064>065-071>073-077>080-251400-
SOUTHWEST LOWER MICHIGAN

CITY           SKY/WX    TMP DP  RH WIND       PRES   REMARKS
BATTLE CREEK   MOSUNNY   68  66  93 CALM      30.08S FOG
BENTON HARBOR  SUNNY     69  59  70 SE3       30.05R
BIG RAPIDS     MOSUNNY   60  58  92 CALM      30.07S
COLDWATER      MOSUNNY   66  66 100 CALM      30.08S FOG
FREMONT        FAIR      68  64  86 SE5       30.05S
HOLLAND        SUNNY     69  62  78 CALM      30.05S
GRAND RAPIDS   MOSUNNY   70  65  84 CALM      30.06S
IONIA          FAIR      66  64  91 CALM      30.06S
KALAMAZOO      MOSUNNY   65  62  90 CALM      30.08S FOG
LUDINGTON      SUNNY     63  59  88 CALM      30.03S
MARSHALL       MOSUNNY   64  64  98 CALM      30.07F FOG
MOUNT PLEASANT SUNNY     65  62  89 CALM      30.06S
MUSKEGON       MOSUNNY   70  63  78 SE5       30.05R
SOUTH HAVEN    SUNNY     68  61  77 CALM      30.05S
$$
MIZ016>042-251400-
NORTHERN LOWER MICHIGAN

CITY           SKY/WX    TMP DP  RH WIND       PRES   REMARKS
ALPENA         SUNNY     71  64  78 SW6       30.06S
BELLAIRE       MOSUNNY   64  62  96 CALM      30.04S
CADILLAC       SUNNY     62  57  84 CALM      30.07F
CHARLEVOIX     SUNNY     68  62  81 SE6       30.05S
FRANKFORT      MOSUNNY   74  61  63 E3        30.02F
GAYLORD        SUNNY     69  60  73 S6        30.08S
GRAYLING       SUNNY     61  56  85 CALM      30.08S
HARBOR SPRINGS MOSUNNY   73  59  62 W5        30.03S
HOUGHTON LAKE  SUNNY     71  63  75 CALM      30.09S
MANISTEE       MOSUNNY   64  61  90 E6        30.03S
OSCODA         SUNNY     70  68  95 SW5       30.07R
PELLSTON       MOSUNNY   65  62  90 CALM      30.03S
ROGERS CITY    SUNNY     71  61  69 SW8       30.05S
TRAVERSE CITY  PTSUNNY   71  60  68 VRB5      30.02R
$$
MIZ007>008-015-251400-
EASTERN UPPER MICHIGAN

CITY           SKY/WX    TMP DP  RH WIND       PRES   REMARKS
KINROSS        SUNNY     72  63  73 S3        30.02S
MACKINAC ISLAN SUNNY     72  61  67 S9        30.02R
NEWBERRY       SUNNY     69  66  92 S13       30.00R
S. S. MARIE    SUNNY     68  64  87 E3        30.01S
MUNISING         N/A     70  64  81 S9        29.97R
$$
MIZ004>006-011>014-085-251400-
CENTRAL UPPER MICHIGAN

CITY           SKY/WX    TMP DP  RH WIND       PRES   REMARKS
MANISTIQUE       N/A     67  61  81 S7        30.00R
MENOMINEE      MOSUNNY   67  64  90 CALM      30.00R
SAWYER-GWINN   SUNNY     63  61  94 S8        29.98S
$$
MIZ001>003-009>011-084-251400-
WESTERN UPPER MICHIGAN

CITY           SKY/WX    TMP DP  RH WIND       PRES   REMARKS
IRON MOUNTAIN  SUNNY     65  60  84 CALM      29.98R HAZE
HOUGHTON       MOSUNNY   70  63  78 W12       29.93R
COPPER HARBOR    N/A     73  63  70 N5        29.90R
IRONWOOD       CLOUDY    67  65  93 W6        29.97S
$$

ABBREVIATIONS USED IN REMARKS
   TC - TEMPERATURE IN CELSIUS
  WCI - WIND CHILL INDEX
   HX - HEAT INDEX
  VSB - VISIBILITY




USA.gov is the U.S. government's official web portal to all federal, state and local government web resources and services.